![]() |
EMODnet Physics ERDDAP
Easier access to scientific data |
log in|
Brought to you by EMODnet Physics |
| Dataset Title: | NDBC - Collection of dew point temperature (DEWT) TimeSeries - IN SITU MultiPointTimeSeriesObservation
|
| Institution: | NDBC (Dataset ID: TS_DEWT_NDBC) |
| Information: | Summary
| License
| FGDC
| ISO 19115
| Metadata
| Background
| Subset
| Data Access Form
| Make a graph
|
| Name | Last modified | Size | Description | |
|---|---|---|---|---|
| Parent Directory | - | - | ||
| HRBM4_TS_DEWT_012015.nc | 21-Dec-2024 11:30 | 450119 | ||
| HRBM4_TS_DEWT_012016.nc | 21-Dec-2024 11:36 | 449973 | ||
| HRBM4_TS_DEWT_012017.nc | 21-Dec-2024 11:42 | 429917 | ||
| HRBM4_TS_DEWT_012018.nc | 21-Dec-2024 11:48 | 429909 | ||
| HRBM4_TS_DEWT_012019.nc | 21-Dec-2024 11:54 | 429912 | ||
| HRBM4_TS_DEWT_012020.nc | 21-Dec-2024 12:01 | 429910 | ||
| HRBM4_TS_DEWT_012021.nc | 21-Dec-2024 12:07 | 451031 | ||
| HRBM4_TS_DEWT_012022.nc | 21-Dec-2024 12:13 | 450485 | ||
| HRBM4_TS_DEWT_012023.nc | 21-Dec-2024 12:19 | 450796 | ||
| HRBM4_TS_DEWT_012025.nc | 07-Feb-2025 10:31 | 450256 | ||
| HRBM4_TS_DEWT_012026.nc | 02-Feb-2026 17:05 | 4123310 | ||
| HRBM4_TS_DEWT_022015.nc | 21-Dec-2024 11:30 | 427239 | ||
| HRBM4_TS_DEWT_022017.nc | 21-Dec-2024 11:42 | 429368 | ||
| HRBM4_TS_DEWT_022018.nc | 21-Dec-2024 11:49 | 429297 | ||
| HRBM4_TS_DEWT_022019.nc | 21-Dec-2024 11:55 | 429253 | ||
| HRBM4_TS_DEWT_022020.nc | 21-Dec-2024 12:01 | 429369 | ||
| HRBM4_TS_DEWT_022021.nc | 21-Dec-2024 12:07 | 429367 | ||
| HRBM4_TS_DEWT_022022.nc | 21-Dec-2024 12:14 | 429364 | ||
| HRBM4_TS_DEWT_022023.nc | 21-Dec-2024 12:20 | 429348 | ||
| HRBM4_TS_DEWT_022025.nc | 01-Mar-2025 05:04 | 429364 | ||
| HRBM4_TS_DEWT_022026.nc | 01-Mar-2026 05:05 | 429339 | ||
| HRBM4_TS_DEWT_032014.nc | 21-Dec-2024 11:25 | 429370 | ||
| HRBM4_TS_DEWT_032015.nc | 21-Dec-2024 11:31 | 429363 | ||
| HRBM4_TS_DEWT_032017.nc | 21-Dec-2024 11:43 | 429358 | ||
| HRBM4_TS_DEWT_032018.nc | 21-Dec-2024 11:49 | 429363 | ||
| HRBM4_TS_DEWT_032019.nc | 21-Dec-2024 11:55 | 429367 | ||
| HRBM4_TS_DEWT_032020.nc | 21-Dec-2024 12:02 | 450477 | ||
| HRBM4_TS_DEWT_032021.nc | 21-Dec-2024 12:08 | 449576 | ||
| HRBM4_TS_DEWT_032022.nc | 21-Dec-2024 12:14 | 449032 | ||
| HRBM4_TS_DEWT_032023.nc | 21-Dec-2024 12:21 | 449936 | ||
| HRBM4_TS_DEWT_032025.nc | 02-Apr-2025 04:03 | 450403 | ||
| HRBM4_TS_DEWT_032026.nc | 25-Mar-2026 06:04 | 442618 | ||
| HRBM4_TS_DEWT_042014.nc | 21-Dec-2024 11:25 | 450270 | ||
| HRBM4_TS_DEWT_042015.nc | 21-Dec-2024 11:32 | 429567 | ||
| HRBM4_TS_DEWT_042016.nc | 21-Dec-2024 11:38 | 429472 | ||
| HRBM4_TS_DEWT_042017.nc | 21-Dec-2024 11:44 | 448655 | ||
| HRBM4_TS_DEWT_042018.nc | 21-Dec-2024 11:50 | 429571 | ||
| HRBM4_TS_DEWT_042019.nc | 21-Dec-2024 11:56 | 429570 | ||
| HRBM4_TS_DEWT_042020.nc | 21-Dec-2024 12:02 | 429568 | ||
| HRBM4_TS_DEWT_042021.nc | 21-Dec-2024 12:08 | 448819 | ||
| HRBM4_TS_DEWT_042022.nc | 21-Dec-2024 12:15 | 449067 | ||
| HRBM4_TS_DEWT_042023.nc | 21-Dec-2024 12:21 | 429566 | ||
| HRBM4_TS_DEWT_042025.nc | 01-May-2025 05:01 | 429570 | ||
| HRBM4_TS_DEWT_052014.nc | 21-Dec-2024 11:26 | 429570 | ||
| HRBM4_TS_DEWT_052015.nc | 21-Dec-2024 11:32 | 429568 | ||
| HRBM4_TS_DEWT_052016.nc | 21-Dec-2024 11:38 | 448987 | ||
| HRBM4_TS_DEWT_052017.nc | 21-Dec-2024 11:44 | 450272 | ||
| HRBM4_TS_DEWT_052018.nc | 21-Dec-2024 11:50 | 449260 | ||
| HRBM4_TS_DEWT_052019.nc | 21-Dec-2024 11:56 | 448389 | ||
| HRBM4_TS_DEWT_052021.nc | 21-Dec-2024 12:09 | 429684 | ||
| HRBM4_TS_DEWT_052022.nc | 21-Dec-2024 12:15 | 429689 | ||
| HRBM4_TS_DEWT_052023.nc | 21-Dec-2024 12:22 | 429520 | ||
| HRBM4_TS_DEWT_052025.nc | 01-Jun-2025 08:28 | 428936 | ||
| HRBM4_TS_DEWT_062014.nc | 21-Dec-2024 11:26 | 429688 | ||
| HRBM4_TS_DEWT_062015.nc | 21-Dec-2024 11:33 | 429694 | ||
| HRBM4_TS_DEWT_062016.nc | 21-Dec-2024 11:39 | 429690 | ||
| HRBM4_TS_DEWT_062017.nc | 21-Dec-2024 11:45 | 429689 | ||
| HRBM4_TS_DEWT_062018.nc | 21-Dec-2024 11:51 | 429694 | ||
| HRBM4_TS_DEWT_062019.nc | 21-Dec-2024 11:57 | 429694 | ||
| HRBM4_TS_DEWT_062020.nc | 21-Dec-2024 12:03 | 429686 | ||
| HRBM4_TS_DEWT_062021.nc | 21-Dec-2024 12:09 | 429695 | ||
| HRBM4_TS_DEWT_062022.nc | 21-Dec-2024 12:16 | 429698 | ||
| HRBM4_TS_DEWT_062023.nc | 21-Dec-2024 12:22 | 429687 | ||
| HRBM4_TS_DEWT_062025.nc | 17-Jun-2025 06:39 | 429693 | ||
| HRBM4_TS_DEWT_072014.nc | 21-Dec-2024 11:27 | 450191 | ||
| HRBM4_TS_DEWT_072015.nc | 21-Dec-2024 11:33 | 451200 | ||
| HRBM4_TS_DEWT_072016.nc | 21-Dec-2024 11:39 | 449677 | ||
| HRBM4_TS_DEWT_072018.nc | 21-Dec-2024 11:51 | 450583 | ||
| HRBM4_TS_DEWT_072019.nc | 21-Dec-2024 11:57 | 434138 | ||
| HRBM4_TS_DEWT_072020.nc | 21-Dec-2024 12:04 | 451098 | ||
| HRBM4_TS_DEWT_072021.nc | 21-Dec-2024 12:10 | 429908 | ||
| HRBM4_TS_DEWT_072022.nc | 21-Dec-2024 12:16 | 429582 | ||
| HRBM4_TS_DEWT_072023.nc | 21-Dec-2024 12:23 | 451477 | ||
| HRBM4_TS_DEWT_072025.nc | 16-Aug-2025 06:57 | 429914 | ||
| HRBM4_TS_DEWT_082014.nc | 21-Dec-2024 11:27 | 429913 | ||
| HRBM4_TS_DEWT_082015.nc | 21-Dec-2024 11:34 | 429913 | ||
| HRBM4_TS_DEWT_082016.nc | 21-Dec-2024 11:39 | 450236 | ||
| HRBM4_TS_DEWT_082017.nc | 21-Dec-2024 11:46 | 432348 | ||
| HRBM4_TS_DEWT_082018.nc | 21-Dec-2024 11:52 | 429913 | ||
| HRBM4_TS_DEWT_082019.nc | 21-Dec-2024 11:58 | 429911 | ||
| HRBM4_TS_DEWT_082020.nc | 21-Dec-2024 12:04 | 429648 | ||
| HRBM4_TS_DEWT_082021.nc | 21-Dec-2024 12:10 | 429914 | ||
| HRBM4_TS_DEWT_082022.nc | 21-Dec-2024 12:17 | 451355 | ||
| HRBM4_TS_DEWT_082023.nc | 21-Dec-2024 12:23 | 450224 | ||
| HRBM4_TS_DEWT_082025.nc | 01-Sep-2025 07:23 | 451099 | ||
| HRBM4_TS_DEWT_092014.nc | 21-Dec-2024 11:28 | 451027 | ||
| HRBM4_TS_DEWT_092015.nc | 21-Dec-2024 11:34 | 4453324 | ||
| HRBM4_TS_DEWT_092016.nc | 21-Dec-2024 11:40 | 429652 | ||
| HRBM4_TS_DEWT_092017.nc | 21-Dec-2024 11:46 | 425999 | ||
| HRBM4_TS_DEWT_092018.nc | 21-Dec-2024 11:52 | 429678 | ||
| HRBM4_TS_DEWT_092019.nc | 21-Dec-2024 11:59 | 429763 | ||
| HRBM4_TS_DEWT_092020.nc | 21-Dec-2024 12:05 | 429688 | ||
| HRBM4_TS_DEWT_092021.nc | 21-Dec-2024 12:11 | 429696 | ||
| HRBM4_TS_DEWT_092022.nc | 21-Dec-2024 12:17 | 429622 | ||
| HRBM4_TS_DEWT_092023.nc | 21-Dec-2024 12:24 | 429690 | ||
| HRBM4_TS_DEWT_092025.nc | 01-Oct-2025 07:20 | 429661 | ||
| HRBM4_TS_DEWT_102014.nc | 21-Dec-2024 11:28 | 429625 | ||
| HRBM4_TS_DEWT_102015.nc | 21-Dec-2024 11:35 | 425272 | ||
| HRBM4_TS_DEWT_102016.nc | 21-Dec-2024 11:40 | 429658 | ||
| HRBM4_TS_DEWT_102017.nc | 21-Dec-2024 11:47 | 429691 | ||
| HRBM4_TS_DEWT_102018.nc | 21-Dec-2024 11:53 | 429685 | ||
| HRBM4_TS_DEWT_102019.nc | 21-Dec-2024 11:59 | 429683 | ||
| HRBM4_TS_DEWT_102020.nc | 21-Dec-2024 12:05 | 429690 | ||
| HRBM4_TS_DEWT_102021.nc | 21-Dec-2024 12:11 | 429698 | ||
| HRBM4_TS_DEWT_102022.nc | 21-Dec-2024 12:18 | 429685 | ||
| HRBM4_TS_DEWT_102023.nc | 21-Dec-2024 12:24 | 429690 | ||
| HRBM4_TS_DEWT_102025.nc | 01-Nov-2025 06:21 | 429691 | ||
| HRBM4_TS_DEWT_112014.nc | 21-Dec-2024 11:29 | 429992 | ||
| HRBM4_TS_DEWT_112015.nc | 21-Dec-2024 11:35 | 429861 | ||
| HRBM4_TS_DEWT_112016.nc | 21-Dec-2024 11:41 | 429911 | ||
| HRBM4_TS_DEWT_112017.nc | 21-Dec-2024 11:47 | 429905 | ||
| HRBM4_TS_DEWT_112018.nc | 21-Dec-2024 11:53 | 429910 | ||
| HRBM4_TS_DEWT_112019.nc | 21-Dec-2024 12:00 | 429654 | ||
| HRBM4_TS_DEWT_112020.nc | 21-Dec-2024 12:06 | 429887 | ||
| HRBM4_TS_DEWT_112021.nc | 21-Dec-2024 12:12 | 429911 | ||
| HRBM4_TS_DEWT_112022.nc | 21-Dec-2024 12:18 | 429894 | ||
| HRBM4_TS_DEWT_112023.nc | 21-Dec-2024 12:25 | 429910 | ||
| HRBM4_TS_DEWT_112024.nc | 17-Jan-2025 17:47 | 429915 | ||
| HRBM4_TS_DEWT_112025.nc | 01-Dec-2025 10:18 | 429907 | ||
| HRBM4_TS_DEWT_122014.nc | 21-Dec-2024 11:29 | 429911 | ||
| HRBM4_TS_DEWT_122015.nc | 21-Dec-2024 11:36 | 429894 | ||
| HRBM4_TS_DEWT_122016.nc | 21-Dec-2024 11:41 | 429908 | ||
| HRBM4_TS_DEWT_122017.nc | 21-Dec-2024 11:48 | 424265 | ||
| HRBM4_TS_DEWT_122018.nc | 21-Dec-2024 11:54 | 429904 | ||
| HRBM4_TS_DEWT_122019.nc | 21-Dec-2024 12:00 | 429911 | ||
| HRBM4_TS_DEWT_122020.nc | 21-Dec-2024 12:06 | 429905 | ||
| HRBM4_TS_DEWT_122021.nc | 21-Dec-2024 12:12 | 429016 | ||
| HRBM4_TS_DEWT_122022.nc | 21-Dec-2024 12:19 | 428658 | ||
| HRBM4_TS_DEWT_122023.nc | 21-Dec-2024 12:25 | 428638 | ||
| HRBM4_TS_DEWT_122024.nc | 22-Jan-2025 18:28 | 428686 | ||
| HRBM4_TS_DEWT_122025.nc | 01-Jan-2026 04:51 | 429037 | ||